Погода в Климушино

Россия / Вологодская область     60°48′37″N   42°06′07″E
темп.,
°C
ветер,
м/с
пор.,
м/с
влажн.,
%
обл.,
%
осадки,
мм/ч
давл.,
гПа
погр.,
м
12 мая, ср
ср1200:00+11ююз278977 0.0 1028118
03:00+9ююз23925 0.0 102963
06:00+12ююз25795 0.0 1029164
09:00+19ююз23545 0.0 1028627
12:00+22ююз23410 0.0 10271210
15:00+24ююз23340 0.0 10261504
18:00+22ю23430 0.0 1025198
21:00+14ю24633 0.0 102555
13 мая, чт
чт1300:00+12ю22644 0.0 102526
03:00+11ю22795 0.0 102525
06:00+15ююв257425 0.0 1025148
09:00+21ю245339 0.0 1024646
12:00+25ююв463790 0.0 10222675
15:00+20юв245925 0.0 102188
18:00+20ююв24588 0.0 1019101
21:00+16юв297427 0.0 1018179
14 мая, пт
пт1400:00+14ю3128277 0.0 1017381
03:00+14юв289589 0.4 1016327
06:00+14ююв3996100 0.6 1015493
09:00+15ююз5981100 0.8 1015988
12:00+19ююз59405 0.0 10151846
15:00+19юз6104059 0.0 10152440
18:00+17зюз510600 0.0 10151510
21:00+11юз278380 0.0 1016181
15 мая, сб
сб1500:00+10юз279013 0.0 1015142
03:00+9ююз27915 0.0 1016136
06:00+12ююз237110 0.0 1016134
09:00+18ю234681 0.0 1015771
12:00+22ююв344522 0.0 10141511
15:00+21ююв4560100 0.4 10131034
18:00+18вюв3985100 0.8 1011311
21:00+16юв2698100 8.0 1008184
16 мая, вс
вс1600:00+14ююв3119789 0.1 1008405
03:00+12ююв29975 0.1 1008212
06:00+15ю3119544 0.1 1007455
09:00+19ююз58725 0.1 1007930
12:00+21ююз695761 0.6 10071583
15:00+19юз697126 1.9 10071201
18:00+14юз4118688 1.2 1009654
21:00+14юз412927 1.2 1010583